Weather in Castellammare del Golfo

Italy     38°01′36″N   12°52′52″E
temp.,
°C
wind,
m/s
gust,
m/s
humid.,
%
clouds,
%
prec.,
mm/h
press.,
hPa
HPBL,
m
13 april, tue
tue1323:00+11s4483100 0.0 102179
02:00+11s348779 0.0 102095
05:00+11ssw11904 0.0 102030
08:00+10wsw127812 0.0 1021143
11:00+14wnw34520 0.0 1021950
14:00+15nw44525 0.0 1021966
17:00+14nnw44570 0.0 1020724
20:00+10nnw24695 0.0 1020175
14 april, wed
wed1423:00+9se117471 0.0 102134
02:00+8sse22675 0.0 102054
05:00+8sse22595 0.0 102050
08:00+10se115753 0.0 102175
11:00+13nnw32523 0.0 1021589
14:00+14n43543 0.0 1020516
17:00+13n54574 0.0 1019523
20:00+10nne23715 0.0 1019230
15 april, thu
thu1523:00+9se22776 0.0 102042
02:00+8s33805 0.0 101960
05:00+7sse227712 0.0 101966
08:00+10s236999 0.0 1019113
11:00+14wsw2355100 0.0 1019758
14:00+14sw2362100 0.1 1018822
17:00+12nw1176100 0.2 1018464
20:00+11e1284100 0.4 1017184
16 april, fri
fri1623:00+11wnw1185100 0.3 1017107
02:00+10nnw2295100 2.6 1016163
05:00+10ne1192100 1.2 1014136
08:00+11s1188100 1.5 1013248
11:00+12nne1189100 3.1 1012249
14:00+15n337398 3.1 1009753
17:00+16ne5668100 0.1 1007783
20:00+12nne2283100 0.1 1008175
17 april, sat
sat1723:00+11ese1180100 0.2 101075
02:00+11n118278 0.3 1009114
05:00+11nne677994 0.0 1009645
08:00+12ne567992 0.1 1010705
11:00+13nne557322 0.1 1011871
14:00+13n667330 0.3 1011890
17:00+13n677170 0.0 1011860
20:00+10nne45775 0.0 1012340